Location: Bothwell
(41.7170°N, 112.2589°W)
Time: 02:46:04
(UTC+00:00)

Tiros 1 - Pass Details

Date: 14 May 2026
Orbit: 618 x 649 km, 48.4° (Epoch: 6 June)

Event Time Altitude Azimuth Distance (km) Brightness Sun altitude
Rises 06:51:55 0° 220° (SW) 2,913 - -29.1°
Reaches altitude 10° 06:54:19 10° 214° (SSW) 2,002 - -29.2°
Maximum altitude 06:58:41 43° 142° (SE) 877 - -29.3°
Drops below altitude 10° 07:03:01 10° 71° (ENE) 1,993 - -29.4°
Exits shadow 07:03:17 - 70° (ENE) 2,095 9.9 -29.4°
Sets 07:05:24 0° 65° (ENE) 2,898 10.7 -29.5°
